This is the latest recevied weather packets stored in our database for station/object N3MFL. If no packets are shown the sender has not sent any weather packets the latest 10 day(s).
| Time | Temp. | Humidity | Pressure | Rain* | Wind** | Luminosity | Snow |
|---|---|---|---|---|---|---|---|
| 1777791078 | 8.33° C | 60% | 1009.2 hPa | 0 mm | - | 0 W/m² | - |
| 1777790775 | 8.33° C | 59% | 1009.4 hPa | 0 mm | - | 0 W/m² | - |
| 1777790472 | 8.33° C | 58% | 1009.4 hPa | 0 mm | - | 0 W/m² | - |
| 1777790169 | 8.33° C | 60% | 1009.5 hPa | 0 mm | - | 0 W/m² | - |
| 1777789867 | 8.33° C | 59% | 1009.8 hPa | 0 mm | - | 0 W/m² | - |
| 1777789565 | 8.33° C | 57% | 1009.6 hPa | 0 mm | - | 0 W/m² | - |
| 1777789264 | 8.33° C | 59% | 1009.9 hPa | 0 mm | - | 0 W/m² | - |
| 1777788960 | 8.33° C | 58% | 1009.9 hPa | 0 mm | - | 0 W/m² | - |
| 1777788656 | 8.33° C | 59% | 1009.9 hPa | 0 mm | - | 0 W/m² | - |
| 1777788356 | 8.33° C | 60% | 1009.9 hPa | 0 mm | - | 0 W/m² | - |
| 1777788052 | 8.33° C | 59% | 1009.8 hPa | 0 mm | - | 0 W/m² | - |
| 1777787747 | 8.89° C | 59% | 1009.8 hPa | 0 mm | - | 0 W/m² | - |
| 1777787443 | 8.89° C | 61% | 1010.1 hPa | 0 mm | - | 0 W/m² | - |
| 1777787139 | 8.89° C | 61% | 1010.2 hPa | 0 mm | - | 0 W/m² | - |
| 1777786837 | 8.89° C | 61% | 1010.2 hPa | 0 mm | - | 0 W/m² | - |
| 1777786535 | 8.89° C | 65% | 1010.2 hPa | 0 mm | - | 0 W/m² | - |
| 1777786232 | 8.89° C | 65% | 1010.2 hPa | 0 mm | - | 0 W/m² | - |
| 1777785929 | 8.89° C | 70% | 1010.2 hPa | 0 mm | - | 0 W/m² | - |
| 1777785625 | 8.89° C | 72% | 1010.3 hPa | 0 mm | - | 0 W/m² | - |
| 1777785321 | 8.89° C | 76% | 1010.2 hPa | 0 mm | - | 0 W/m² | - |
| 1777785019 | 8.89° C | 77% | 1010.1 hPa | 0 mm | - | 0 W/m² | - |
| 1777784714 | 8.89° C | 75% | 1010.3 hPa | 0 mm | - | 0 W/m² | - |
| 1777784412 | 8.89° C | 78% | 1010.4 hPa | 0 mm | - | 0 W/m² | - |
| 1777784109 | 9.44° C | 79% | 1010.6 hPa | 0 mm | - | 0 W/m² | - |
| 1777783806 | 8.89° C | 80% | 1010.5 hPa | 0 mm | - | 0 W/m² | - |
* Rain latest hour (hover to see other rain measurements)
** Current wind speed in m/s (hover to see current wind gust speed)